EW5807 Weather Reports


Display with metric or nautical units.
time (UTC)temp
F
wind
direction
speed
MPH
gust
MPH
rain 1hr
in
rain 24hr
in
rain mn
in
humidity
%
barometer
mb
20260509034519 59 129 0.0 1.0 0.00 0.00 0.00 27 1010.4
20260509033020 60 133 0.0 2.0 0.00 0.00 0.00 25 1010.3
20260509031511 61 304 0.0 0.0 0.00 0.00 0.00 23 1010.1
20260509030017 63 304 0.0 0.0 0.00 0.00 0.00 22 1009.9
20260509024503 64 304 0.0 5.0 0.00 0.00 0.00 21 1009.7
20260509023057 66 304 3.0 6.0 0.00 0.00 0.00 20 1009.4
20260509021555 68 323 5.0 9.0 0.00 0.00 0.00 19 1009.2
20260509020050 72 295 5.0 11.0 0.00 0.00 0.00 17 1008.9
20260509014549 73 290 5.0 12.0 0.00 0.00 0.00 18 1008.8
20260509013017 73 302 6.0 13.0 0.00 0.00 0.00 18 1008.6
20260509011517 74 265 6.0 11.0 0.00 0.00 0.00 19 1008.7
20260509010016 74 300 9.0 15.0 0.00 0.00 0.00 19 1008.8
20260509004517 75 325 9.0 15.0 0.00 0.00 0.00 19 1008.7
20260509003012 74 325 8.0 16.0 0.00 0.00 0.00 19 1008.8
20260509001512 75 272 7.0 12.0 0.00 0.00 0.00 18 1008.9
20260509000045 74 297 5.0 12.0 0.00 0.00 0.00 18 1008.9
20260508234541 75 264 6.0 12.0 0.00 0.00 0.00 16 1008.9
20260508233039 76 346 6.0 13.0 0.00 0.00 0.00 16 1008.9
20260508231544 77 281 9.0 17.0 0.00 0.00 0.00 15 1009.0
20260508230036 76 281 6.0 12.0 0.00 0.00 0.00 16 1009.1
20260508224555 77 288 5.0 15.0 0.00 0.00 0.00 18 1009.3
20260508223027 76 276 3.0 10.0 0.00 0.00 0.00 18 1009.5
20260508221532 75 260 1.0 12.0 0.00 0.00 0.00 19 1009.5
20260508220031 76 297 8.0 14.0 0.00 0.00 0.00 19 1009.7
20260508214533 76 240 2.0 13.0 0.00 0.00 0.00 20 1009.9
20260508213029 76 257 7.0 14.0 0.00 0.00 0.00 20 1010.1
20260508211523 75 297 5.0 16.0 0.00 0.00 0.00 19 1010.4
20260508210017 75 288 5.0 15.0 0.00 0.00 0.00 19 1010.5
20260508204511 75 278 7.0 13.0 0.00 0.00 0.00 19 1010.6
20260508203008 74 278 3.0 15.0 0.00 0.00 0.00 19 1010.7
20260508201506 73 101 4.0 8.0 0.00 0.00 0.00 20 1010.9
20260508200108 73 298 5.0 9.0 0.00 0.00 0.00 20 1011.3
20260508194552 73 307 6.0 13.0 0.00 0.00 0.00 20 1011.4
20260508193058 73 68 4.0 9.0 0.00 0.00 0.00 20 1011.5
20260508191547 73 342 5.0 11.0 0.00 0.00 0.00 20 1011.6
20260508190040 72 277 5.0 11.0 0.00 0.00 0.00 20 1011.8
20260508184541 71 277 3.0 12.0 0.00 0.00 0.00 23 1011.9
20260508183053 71 308 9.0 15.0 0.00 0.00 0.00 23 1012.0
20260508181548 71 343 8.0 12.0 0.00 0.00 0.00 21 1012.2
20260508180036 70 329 0.0 8.0 0.00 0.00 0.00 22 1012.2
20260508174536 69 270 3.0 9.0 0.00 0.00 0.00 22 1012.3
20260508173037 69 285 2.0 8.0 0.00 0.00 0.00 24 1012.3
20260508171537 69 296 3.0 8.0 0.00 0.00 0.00 23 1012.4
20260508170030 68 255 0.0 8.0 0.00 0.00 0.00 26 1012.5
20260508164530 66 279 5.0 9.0 0.00 0.00 0.00 26 1012.5
20260508163029 66 284 1.0 7.0 0.00 0.00 0.00 27 1012.5
20260508161535 65 263 1.0 7.0 0.00 0.00 0.00 27 1012.6
20260508160033 65 236 2.0 7.0 0.00 0.00 0.00 27 1012.6
20260508154524 65 297 4.0 7.0 0.00 0.00 0.00 28 1012.5
20260508153024 63 289 1.0 5.0 0.00 0.00 0.00 34 1012.5
20260508151521 61 294 2.0 5.0 0.00 0.00 0.00 38 1012.4
20260508150023 60 257 2.0 4.0 0.00 0.00 0.00 40 1012.3
20260508144534 57 248 0.0 2.0 0.00 0.00 0.00 45 1012.3
20260508143027 54 243 0.0 1.0 0.00 0.00 0.00 48 1012.2
20260508141523 53 49 0.0 1.0 0.00 0.00 0.00 49 1012.0
20260508140016 50 315 0.0 0.0 0.00 0.00 0.00 52 1011.8
20260508134513 46 341 0.0 2.0 0.00 0.00 0.00 59 1011.7
20260508133011 44 342 0.0 0.0 0.00 0.00 0.00 63 1011.2
20260508131507 0 0.0 0.0 0.00 0.00 0.00 1011.0
20260508130002 0 0.0 0.0 0.00 0.00 0.00 1011.0
20260508124601 0 0.0 0.0 0.00 0.00 0.00 1010.9
20260508123052 0 0.0 0.0 0.00 0.00 0.00 1011.0
20260508121549 0 0.0 0.0 0.00 0.00 0.00 1011.1
20260508120043 0 0.0 0.0 0.00 0.00 0.00 1011.3
20260508114540 44 106 0.0 0.0 0.00 0.00 0.00 56 1011.3
20260508113103 44 121 0.0 0.0 0.00 0.00 0.00 54 1011.2
20260508111539 43 148 0.0 1.0 0.00 0.00 0.00 57 1011.1
20260508110038 42 94 0.0 0.0 0.00 0.00 0.00 59 1010.9
20260508104548 42 108 0.0 1.0 0.00 0.00 0.00 58 1010.8
20260508103035 43 124 0.0 1.0 0.00 0.00 0.00 61 1010.7
20260508101540 41 138 0.0 0.0 0.00 0.00 0.00 65 1010.5
20260508100036 42 138 0.0 0.0 0.00 0.00 0.00 62 1010.5
20260508094524 43 138 0.0 2.0 0.00 0.00 0.00 60 1010.3
20260508093024 43 58 0.0 2.0 0.00 0.00 0.00 58 1010.2
20260508091521 45 58 0.0 2.0 0.00 0.00 0.00 55 1010.1
20260508090023 44 58 0.0 2.0 0.00 0.00 0.00 56 1010.2
20260508084518 47 60 0.0 1.0 0.00 0.00 0.00 51 1010.2
20260508083017 50 104 0.0 0.0 0.00 0.00 0.00 46 1010.2
20260508081517 49 146 0.0 3.0 0.00 0.00 0.00 47 1010.4
20260508080016 50 141 1.0 3.0 0.00 0.00 0.00 47 1010.4
20260508074517 48 148 0.0 2.0 0.00 0.00 0.00 50 1010.3
20260508073013 44 141 0.0 1.0 0.00 0.00 0.00 61 1010.3
20260508071509 45 241 0.0 3.0 0.00 0.00 0.00 53 1009.9
20260508070007 48 47 0.0 3.0 0.00 0.00 0.00 53 1009.8
20260508064552 50 70 0.0 1.0 0.00 0.00 0.00 50 1009.7
20260508063032 53 86 0.0 0.0 0.00 0.00 0.00 44 1009.7
20260508061528 52 59 0.0 2.0 0.00 0.00 0.00 46 1009.7
20260508060034 53 72 0.0 2.0 0.00 0.00 0.00 44 1009.7
20260508054535 56 93 0.0 1.0 0.00 0.00 0.00 38 1009.7
20260508053020 57 113 0.0 1.0 0.00 0.00 0.00 36 1009.7
20260508051547 59 116 0.0 2.0 0.00 0.00 0.00 35 1009.5
20260508050046 60 113 0.0 1.0 0.00 0.00 0.00 33 1009.4
20260508044544 60 141 0.0 0.0 0.00 0.00 0.00 34 1009.4
20260508043049 59 126 0.0 1.0 0.00 0.00 0.00 35 1009.6
20260508041541 60 109 0.0 2.0 0.00 0.00 0.00 34 1009.2
20260508040048 61 126 0.0 3.0 0.00 0.00 0.00 33 1009.1